When you browse on this site, cookies collect data to enhance your experience and personalize the content and advertising you see.
Visit our Privacy Policy to learn more. By continuing to use the site, you agree to this use of cookies and data.
  • In Portugal
  • List of Countries
  • For 7 days
  • Water Temperature
  • Weather Map
  • Weather Widgets
  • user-avatar
    Login

    Hourly Weather Kipungo

    Today, 16 October, Wednesday

    Time Temperature Precipitation Wind Pressure Humidity
    00:00 +23°C° 0.1 mm 2 mps 654 mmHg 72%
    01:00 +21°C° 0 mm 2 mps 654 mmHg 78%
    02:00 +21°C° 0 mm 2 mps 653 mmHg 78%
    03:00 +21°C° 0 mm 2 mps 653 mmHg 79%
    04:00 +20°C° 0 mm 2 mps 653 mmHg 79%
    05:00 +21°C° 0 mm 2 mps 653 mmHg 76%
    06:00 +22°C° 0 mm 1 mps 654 mmHg 73%
    07:00 +23°C° 0 mm 1 mps 654 mmHg 70%
    08:00 +26°C° 0 mm 1 mps 655 mmHg 58%
    09:00 +29°C° 0 mm 1 mps 656 mmHg 47%
    10:00 +32°C° 0 mm 1 mps 656 mmHg 36%
    11:00 +34°C° 0 mm 2 mps 656 mmHg 32%
    12:00 +34°C° 0 mm 3 mps 655 mmHg 29%
    13:00 +35°C° 0 mm 4 mps 655 mmHg 25%
    14:00 +35°C° 0 mm 3 mps 654 mmHg 26%
    15:00 +34°C° 0 mm 3 mps 653 mmHg 26%
    16:00 +34°C° 0 mm 2 mps 653 mmHg 26%
    17:00 +32°C° 0 mm 2 mps 653 mmHg 29%
    18:00 +30°C° 0 mm 1 mps 654 mmHg 31%
    19:00 +27°C° 0 mm 0 mps 654 mmHg 33%
    20:00 +28°C° 0 mm 1 mps 654 mmHg 41%
    21:00 +26°C° 0 mm 1 mps 654 mmHg 49%
    22:00 +25°C° 0 mm 2 mps 654 mmHg 57%
    23:00 +24°C° 0 mm 2 mps 654 mmHg 62%

    Tomorrow, 17 October, Thursday

    Time Temperature Precipitation Wind Pressure Humidity
    00:00 +23°C° 0 mm 1 mps 653 mmHg 67%
    01:00 +23°C° 0 mm 1 mps 653 mmHg 72%
    02:00 +22°C° 0 mm 1 mps 653 mmHg 73%
    03:00 +22°C° 0 mm 1 mps 653 mmHg 74%
    04:00 +21°C° 0 mm 1 mps 652 mmHg 75%
    05:00 +22°C° 0 mm 1 mps 653 mmHg 70%
    06:00 +23°C° 0 mm 1 mps 654 mmHg 64%
    07:00 +24°C° 0 mm 1 mps 654 mmHg 58%
    08:00 +27°C° 0 mm 1 mps 655 mmHg 47%
    09:00 +30°C° 0 mm 2 mps 655 mmHg 36%
    10:00 +33°C° 0 mm 3 mps 656 mmHg 25%
    11:00 +35°C° 0 mm 3 mps 655 mmHg 21%
    12:00 +36°C° 0 mm 3 mps 655 mmHg 18%
    13:00 +37°C° 0 mm 3 mps 655 mmHg 14%
    14:00 +37°C° 0 mm 3 mps 654 mmHg 13%
    15:00 +37°C° 0 mm 3 mps 654 mmHg 13%
    16:00 +37°C° 0 mm 2 mps 653 mmHg 12%
    17:00 +34°C° 0 mm 2 mps 653 mmHg 14%
    18:00 +31°C° 0 mm 1 mps 653 mmHg 17%
    19:00 +29°C° 0 mm 1 mps 653 mmHg 20%
    20:00 +27°C° 0 mm 2 mps 654 mmHg 33%
    21:00 +26°C° 0 mm 2 mps 654 mmHg 46%
    22:00 +24°C° 0 mm 3 mps 654 mmHg 60%
    23:00 +24°C° 0 mm 3 mps 654 mmHg 64%

    Day after tomorrow, 18 October, Friday

    Time Temperature Precipitation Wind Pressure Humidity
    00:00 +23°C° 0 mm 2 mps 653 mmHg 69%
    01:00 +21°C° 0 mm 2 mps 653 mmHg 74%
    02:00 +21°C° 0 mm 2 mps 653 mmHg 76%
    03:00 +20°C° 0 mm 2 mps 653 mmHg 79%
    04:00 +19°C° 0 mm 2 mps 652 mmHg 82%
    05:00 +21°C° 0 mm 1 mps 653 mmHg 76%
    06:00 +22°C° 0 mm 1 mps 653 mmHg 71%
    07:00 +23°C° 0 mm 1 mps 654 mmHg 65%
    08:00 +27°C° 0 mm 1 mps 655 mmHg 51%
    09:00 +31°C° 0 mm 1 mps 656 mmHg 37%
    10:00 +35°C° 0 mm 1 mps 656 mmHg 22%
    11:00 +36°C° 0 mm 1 mps 656 mmHg 19%
    12:00 +37°C° 0 mm 2 mps 655 mmHg 16%
    13:00 +38°C° 0 mm 3 mps 654 mmHg 13%
    14:00 +37°C° 0 mm 3 mps 653 mmHg 13%
    15:00 +37°C° 0 mm 3 mps 653 mmHg 13%
    16:00 +37°C° 0 mm 3 mps 652 mmHg 14%
    17:00 +35°C° 0 mm 2 mps 652 mmHg 17%
    18:00 +31°C° 0 mm 2 mps 653 mmHg 20%
    19:00 +29°C° 0 mm 1 mps 653 mmHg 24%
    20:00 +28°C° 0 mm 2 mps 653 mmHg 32%
    21:00 +27°C° 0 mm 2 mps 653 mmHg 40%
    22:00 +25°C° 0 mm 3 mps 653 mmHg 48%
    23:00 +24°C° 0 mm 3 mps 653 mmHg 52%

    19 October, Saturday

    Time Temperature Precipitation Wind Pressure Humidity
    00:00 +23°C° 0 mm 2 mps 652 mmHg 56%
    01:00 +21°C° 0 mm 2 mps 652 mmHg 60%
    02:00 +21°C° 0 mm 2 mps 652 mmHg 62%
    03:00 +20°C° 0 mm 2 mps 652 mmHg 65%
    04:00 +19°C° 0 mm 2 mps 652 mmHg 67%
    05:00 +21°C° 0 mm 1 mps 652 mmHg 64%
    06:00 +22°C° 0 mm 1 mps 653 mmHg 61%
    07:00 +22°C° 0 mm 1 mps 653 mmHg 57%
    08:00 +26°C° 0 mm 1 mps 654 mmHg 46%
    09:00 +30°C° 0 mm 1 mps 655 mmHg 34%
    10:00 +32°C° 0 mm 0 mps 656 mmHg 22%
    11:00 +35°C° 0 mm 1 mps 655 mmHg 19%
    12:00 +37°C° 0 mm 2 mps 655 mmHg 15%
    13:00 +38°C° 0 mm 2 mps 654 mmHg 12%
    14:00 +38°C° 0 mm 3 mps 654 mmHg 12%
    15:00 +37°C° 0 mm 3 mps 653 mmHg 12%
    16:00 +37°C° 0 mm 3 mps 652 mmHg 12%
    17:00 +35°C° 0 mm 3 mps 652 mmHg 15%
    18:00 +32°C° 0 mm 2 mps 653 mmHg 18%
    19:00 +29°C° 0 mm 1 mps 653 mmHg 21%
    20:00 +28°C° 0 mm 2 mps 653 mmHg 30%
    21:00 +26°C° 0 mm 2 mps 653 mmHg 38%
    22:00 +25°C° 0 mm 3 mps 653 mmHg 46%
    23:00 +24°C° 0 mm 2 mps 653 mmHg 51%

    20 October, Sunday

    Time Temperature Precipitation Wind Pressure Humidity
    00:00 +23°C° 0 mm 2 mps 652 mmHg 56%
    01:00 +21°C° 0 mm 2 mps 652 mmHg 61%
    02:00 +20°C° 0 mm 2 mps 652 mmHg 65%
    03:00 +19°C° 0 mm 2 mps 652 mmHg 70%
    04:00 +18°C° 0 mm 2 mps 652 mmHg 75%
    05:00 +20°C° 0 mm 1 mps 652 mmHg 70%
    06:00 +21°C° 0 mm 1 mps 653 mmHg 65%
    07:00 +22°C° 0 mm 1 mps 654 mmHg 60%
    08:00 +26°C° 0 mm 1 mps 654 mmHg 47%
    09:00 +31°C° 0 mm 1 mps 655 mmHg 34%
    10:00 +35°C° 0 mm 1 mps 656 mmHg 21%
    11:00 +36°C° 0 mm 1 mps 656 mmHg 17%
    12:00 +38°C° 0 mm 2 mps 655 mmHg 14%
    13:00 +39°C° 0 mm 3 mps 654 mmHg 11%
    14:00 +38°C° 0 mm 3 mps 654 mmHg 11%
    15:00 +38°C° 0 mm 3 mps 653 mmHg 12%
    16:00 +38°C° 0 mm 2 mps 653 mmHg 12%
    17:00 +36°C° 0 mm 2 mps 653 mmHg 15%
    18:00 +32°C° 0 mm 2 mps 653 mmHg 18%
    19:00 +30°C° 0 mm 1 mps 653 mmHg 20%
    20:00 +28°C° 0 mm 2 mps 653 mmHg 30%
    21:00 +27°C° 0 mm 2 mps 653 mmHg 39%
    22:00 +25°C° 0 mm 2 mps 653 mmHg 49%
    23:00 +24°C° 0 mm 2 mps 653 mmHg 53%

    21 October, Monday

    Time Temperature Precipitation Wind Pressure Humidity
    00:00 +23°C° 0 mm 2 mps 653 mmHg 57%
    01:00 +22°C° 0 mm 1 mps 653 mmHg 61%
    02:00 +22°C° 0 mm 1 mps 652 mmHg 65%
    03:00 +20°C° 0 mm 2 mps 652 mmHg 70%
    04:00 +19°C° 0 mm 2 mps 652 mmHg 74%
    05:00 +21°C° 0 mm 1 mps 653 mmHg 68%
    06:00 +23°C° 0 mm 1 mps 653 mmHg 62%
    07:00 +24°C° 0 mm 1 mps 654 mmHg 57%
    08:00 +28°C° 0 mm 1 mps 655 mmHg 44%
    09:00 +30°C° 0 mm 0 mps 656 mmHg 32%
    10:00 +35°C° 0 mm 0 mps 657 mmHg 19%
    11:00 +37°C° 0 mm 0 mps 656 mmHg 16%
    12:00 +38°C° 0 mm 0 mps 656 mmHg 13%
    13:00 +40°C° 0 mm 0 mps 655 mmHg 10%
    14:00 +41°C° 0 mm 1 mps 655 mmHg 10%
    15:00 +40°C° 0 mm 2 mps 654 mmHg 10%
    16:00 +39°C° 0 mm 2 mps 653 mmHg 10%
    17:00 +36°C° 0 mm 3 mps 653 mmHg 15%
    18:00 +34°C° 0 mm 3 mps 653 mmHg 19%
    19:00 +30°C° 0 mm 3 mps 653 mmHg 23%
    20:00 +28°C° 0 mm 3 mps 653 mmHg 32%
    21:00 +27°C° 0 mm 4 mps 653 mmHg 40%
    22:00 +25°C° 0 mm 4 mps 654 mmHg 49%
    23:00 +24°C° 0 mm 3 mps 653 mmHg 50%
    Show more